Location: Newark
(34.6283°N, 36.0776°E)
Time: 15:34:48
(UTC+00:00)

S-56A Canister/Altair - Pass Details

Date: 17 October 2019
Orbit: 634 x 2498 km, 38.9° (Epoch: 20 November)

Event Time Altitude Azimuth Distance (km) Brightness Sun altitude
Rises 10:05:24 0° 273° (W) 5,931 12.2 44.9°
Reaches altitude 10° 10:15:02 10° 240° (WSW) 5,143 12.4 44.3°
Maximum altitude 10:17:07 10° 232° (SW) 5,120 12.5 44.2°
Drops below altitude 10° 10:19:13 10° 224° (SW) 5,153 12.7 44.0°
Sets 10:29:08 0° 190° (S) 5,976 12.8 43.3°
